Wind_Speed
97 92 87 80 77 73 69 66 63 60 58 57 52 45 46 48 32 36 33 32 30 24 19 20 19 21 21 19 20 27 27 26 26 21 26 25 23 16 20 17 14 16 18 16
100 97 91 85 80 76 72 69 68 66 61 57 51 46 44 50 36 37 37 35 34 28 22 23 21 23 20 17 21 27 28 26 20 20 19 14 15 20 19 20 21 22 23 15
101 100 95 90 85 79 75 75 74 70 63 56 51 47 43 50 38 40 38 36 35 29 26 25 25 24 22 19 21 24 22 21 24 21 16 21 21 21 21 21 22 22 23 20
97 102 100 93 89 83 82 81 76 69 63 58 54 53 50 51 46 43 42 41 36 31 31 29 29 30 29 24 26 27 25 25 23 21 20 23 24 26 23 25 24 24 19 20
92 103 103 96 90 88 87 82 74 67 59 56 56 55 50 48 48 46 44 41 36 35 32 32 29 29 30 27 28 30 29 27 25 24 23 25 27 28 26 22 23 26 26 23
74 99 103 99 96 96 87 83 72 65 61 60 59 53 52 51 47 49 44 42 41 38 31 33 32 35 32 30 28 23 23 25 25 26 25 27 30 26 30 30 30 28 27 26
58 92 101 102 100 95 85 80 72 65 63 61 53 53 55 55 49 43 42 43 42 33 30 37 36 37 35 29 30 27 24 26 28 27 27 32 29 30 30 28 27 26 26 24
43 78 96 103 100 95 87 81 75 67 61 55 56 56 56 59 49 48 44 46 46 43 38 37 36 38 39 36 32 29 29 28 28 30 30 31 28 30 26 24 26 25 24 23
32 56 86 98 101 95 88 84 78 71 63 54 54 56 55 57 47 48 47 48 48 47 46 40 39 41 39 36 34 32 30 28 29 31 30 31 24 28 27 24 27 23 22 22
34 41 63 82 93 93 90 87 80 73 68 62 58 57 56 54 42 43 49 48 49 48 45 44 42 40 43 38 35 31 29 31 32 31 31 30 24 25 27 25 21 19 22 25
33 33 48 65 82 91 92 87 80 72 66 65 60 57 56 53 45 45 45 49 50 48 46 41 41 43 46 41 37 31 32 33 31 31 30 29 23 24 22 19 21 21 24 26
35 36 46 51 73 91 90 86 81 72 66 63 59 57 52 52 48 44 44 45 45 43 41 40 44 46 44 42 36 33 34 31 31 29 28 24 22 20 19 17 20 23 26 28
46 55 58 52 64 86 90 86 80 74 67 63 56 50 50 47 49 47 43 43 44 44 41 40 45 54 44 39 37 34 33 33 30 29 27 25 22 18 18 21 24 26 28 31
42 45 41 43 55 79 86 88 82 75 70 45 41 45 41 43 42 45 42 39 41 42 43 40 43 40 40 39 37 34 30 28 28 26 24 22 22 23 24 26 28 30 33 35
46 48 42 43 58 78 85 83 78 73 67 47 39 39 37 35 31 38 39 40 42 41 41 44 43 35 31 37 35 34 30 27 26 25 25 25 26 28 29 30 33 35 37 39
41 38 48 53 67 76 80 77 72 66 60 55 38 31 32 33 39 37 32 42 42 47 52 48 34 38 39 39 37 33 31 29 27 27 28 29 30 32 34 36 38 40 41 42
39 47 51 57 65 73 71 58 43 46 41 43 43 27 42 34 36 39 39 47 41 39 39 40 45 45 44 44 39 34 33 32 30 30 31 32 34 36 38 40 42 43 44 46
57 56 60 65 64 60 60 43 34 28 30 41 51 25 26 37 44 43 51 45 42 37 33 34 38 40 41 43 41 37 34 32 33 33 34 35 37 40 43 44 45 46 47 49
64 64 62 64 65 59 52 33 43 31 26 24 56 52 43 45 43 33 34 33 34 42 48 36 37 41 44 42 39 37 37 37 37 37 38 39 41 44 45 46 47 49 49 50
68 71 64 50 47 41 36 38 36 24 21 38 33 35 43 39 39 34 38 35 38 40 47 41 44 44 42 42 41 41 39 40 41 41 42 43 45 46 47 49 51 51 51 51
49 28 29 42 24 25 26 29 43 28 16 18 21 27 38 36 40 37 34 33 30 31 44 43 45 43 39 40 40 41 44 44 43 44 45 46 47 48 51 52 51 51 51 52
31 44 41 36 28 24 21 19 17 16 15 17 22 31 34 35 33 32 32 31 33 35 37 40 43 45 42 41 42 44 45 45 45 45 46 48 49 50 50 50 50 52 52 51
16 30 27 21 19 18 17 15 15 16 16 17 17 20 29 33 35 33 32 33 34 35 37 38 39 39 40 42 41 41 41 43 45 47 48 49 48 48 49 51 52 51 51 51
22 25 23 21 17 12 11 11 13 15 15 19 20 20 21 22 25 28 31 31 31 34 36 35 34 36 36 36 36 38 40 42 43 44 46 47 48 50 51 51 52 51 53 53
16 16 20 21 16 12 11 12 12 13 13 16 23 21 22 22 26 28 29 31 32 32 31 32 34 34 34 34 35 37 38 40 42 44 46 48 50 51 51 49 49 52 54 58
17 17 17 17 20 23 16 11 12 10 13 15 22 14 18 22 23 23 25 26 27 26 27 28 30 31 33 34 36 37 41 44 47 48 50 49 47 46 47 49 52 56 61 65
15 15 17 16 15 17 18 18 16 16 16 13 17 17 19 21 24 24 24 25 26 28 28 29 32 34 36 38 39 43 46 46 45 43 42 42 45 47 51 55 60 63 65 63
Wind_Direction
222 222 222 220 221 220 220 220 218 217 220 215 223 218 214 206 216 220 223 229 238 246 250 257 243 218 211 213 211 214 206 219 238 246 250 261 226 222 230 247 260 262 254 241
217 219 219 219 218 218 219 221 220 218 220 217 217 220 207 202 214 217 221 227 235 238 245 246 246 221 210 223 222 216 214 226 238 244 257 249 232 235 235 245 248 254 259 259
211 214 216 216 216 215 215 218 219 219 216 216 212 216 210 203 210 216 222 229 236 241 243 245 248 226 221 220 223 226 228 239 249 239 228 227 236 246 243 253 259 272 275 269
208 208 212 212 213 213 213 216 215 216 213 212 213 209 210 205 210 214 221 225 229 232 239 239 245 232 227 226 226 230 241 248 249 248 237 239 247 253 249 260 260 265 275 271
211 202 207 208 210 212 211 214 213 213 210 211 216 209 211 209 207 216 222 229 228 228 234 239 244 237 231 235 231 230 239 241 241 244 241 243 249 258 264 264 263 265 267 258
211 203 202 204 206 209 209 210 210 210 208 207 209 207 208 212 210 214 217 226 223 226 232 241 231 237 236 232 237 234 232 235 239 247 250 252 253 258 264 261 257 265 267 269
210 205 200 202 203 207 207 209 208 206 207 204 203 205 206 210 212 220 216 222 228 223 229 238 231 232 239 232 233 229 235 240 245 250 254 258 266 260 261 262 263 260 261 261
211 203 202 200 202 203 202 203 206 204 204 202 201 205 206 208 209 213 209 218 221 215 223 231 231 228 235 230 231 233 236 239 249 255 257 261 262 264 263 259 259 258 258 259
208 206 204 202 199 200 199 200 203 203 202 199 201 206 206 210 211 207 206 213 220 219 219 222 230 230 234 233 233 234 239 237 248 254 258 263 257 263 266 258 257 260 265 269
206 203 203 204 200 196 198 198 199 200 199 199 202 202 205 209 208 210 211 215 219 225 228 224 229 229 233 231 234 238 242 244 251 255 260 264 265 256 258 259 266 259 258 264
212 208 200 197 200 195 196 195 196 197 197 202 205 207 207 208 206 215 215 217 222 225 227 231 234 234 233 234 236 240 248 252 250 253 262 266 260 256 260 263 260 261 262 264
196 182 174 187 193 196 191 192 193 193 196 200 207 208 209 208 205 216 216 221 224 228 229 234 234 236 236 238 237 242 251 258 255 251 254 263 257 255 256 258 258 263 269 273
149 160 175 188 190 195 189 186 191 189 195 199 203 209 213 213 211 209 216 221 219 224 231 242 246 238 223 233 240 241 245 250 252 252 254 255 256 251 256 263 268 273 279 283
167 160 174 175 185 191 187 183 188 189 192 185 208 213 214 211 214 218 215 215 220 227 235 233 237 224 220 231 238 241 242 243 246 248 251 252 256 261 265 269 276 283 286 290
164 173 181 168 179 184 183 183 186 192 189 179 181 198 203 205 214 220 220 220 222 231 224 236 238 228 222 228 234 239 239 240 245 248 249 257 263 267 273 278 281 286 292 295
165 160 154 161 175 179 178 180 185 189 192 196 201 194 207 219 221 219 220 219 228 230 233 231 215 210 225 231 235 238 243 247 251 259 265 270 275 280 283 287 290 291 294 297
164 152 149 161 170 173 172 168 171 185 203 202 201 213 229 215 215 211 210 208 200 212 224 219 218 228 223 231 234 238 244 251 259 263 268 273 278 282 285 287 290 295 296 297
131 140 151 159 162 156 156 152 168 167 197 206 200 219 204 197 186 198 198 206 214 224 217 207 210 221 228 232 236 242 249 258 263 268 272 277 280 283 285 289 292 293 294 297
139 140 147 148 145 144 154 160 184 194 178 190 214 228 201 211 214 216 210 206 220 225 225 221 220 228 235 241 247 252 254 260 266 273 277 280 282 284 287 289 289 291 294 295
127 140 122 115 118 136 143 174 178 171 178 199 189 203 211 216 217 220 221 231 227 231 227 220 226 233 247 247 249 254 261 266 271 275 278 280 283 284 286 287 289 293 293 293
133 104 130 147 128 124 129 150 190 200 208 210 210 205 212 214 220 228 233 239 240 234 225 232 231 237 246 252 255 259 262 268 272 275 278 280 282 284 285 288 290 290 292 292
117 120 129 145 158 166 171 187 197 208 209 205 206 206 206 214 218 223 226 232 236 238 237 237 240 239 248 254 256 259 263 267 273 276 277 278 281 284 286 286 289 290 290 290
122 145 149 146 162 170 180 189 199 215 220 213 210 209 210 212 217 222 226 231 233 237 240 239 242 245 249 254 259 264 269 271 273 275 278 281 282 283 285 287 287 288 290 290
157 164 172 174 179 178 187 204 217 226 233 222 206 208 214 220 221 222 227 234 240 243 246 248 250 252 256 260 263 265 267 271 274 276 278 278 281 284 285 286 288 286 285 284
198 199 200 207 203 201 216 236 243 251 242 234 220 227 220 223 226 230 234 240 244 250 255 252 251 255 258 262 267 271 273 273 274 276 279 282 284 285 285 285 281 279 279 280
229 228 226 233 231 228 239 255 241 229 227 228 217 226 219 226 232 238 245 248 250 254 256 258 261 263 264 266 267 271 275 278 279 281 282 283 283 284 284 280 278 278 280 283
200 217 227 228 225 229 247 250 232 241 224 229 224 232 234 238 241 243 249 253 257 258 259 261 262 263 266 270 274 279 281 281 281 281 282 282 281 280 279 279 279 282 287 293
Height
5490 5511 5530 5549 5565 5579 5592 5604 5615 5626 5631 5642 5656 5669 5679 5688 5691 5697 5703 5707 5711 5715 5719 5721 5723 5724 5727 5727 5729 5730 5732 5733 5735 5739 5740 5740 5742 5745 5745 5745 5747 5746 5747 5749
5463 5484 5506 5527 5543 5560 5576 5589 5598 5604 5620 5633 5647 5657 5667 5675 5682 5689 5696 5701 5704 5709 5714 5716 5719 5720 5721 5723 5724 5726 5728 5729 5733 5735 5738 5740 5740 5741 5740 5741 5741 5741 5741 5744
5432 5461 5482 5504 5523 5541 5558 5566 5576 5589 5608 5629 5640 5649 5660 5667 5674 5680 5686 5693 5698 5704 5708 5710 5714 5716 5716 5719 5721 5723 5727 5727 5728 5731 5735 5735 5735 5737 5736 5736 5735 5736 5735 5737
5407 5436 5458 5482 5503 5521 5534 5544 5561 5583 5599 5613 5629 5636 5645 5655 5663 5671 5678 5684 5690 5698 5702 5705 5707 5711 5712 5715 5717 5718 5721 5722 5724 5725 5727 5729 5731 5730 5733 5732 5732 5730 5732 5730
5385 5409 5431 5459 5485 5499 5511 5532 5554 5574 5593 5605 5617 5628 5640 5648 5656 5664 5671 5679 5685 5691 5696 5701 5702 5705 5708 5710 5713 5714 5717 5719 5720 5721 5723 5723 5724 5725 5726 5727 5725 5723 5723 5723
5368 5389 5415 5440 5460 5473 5500 5517 5546 5565 5582 5592 5602 5621 5633 5642 5651 5656 5665 5672 5677 5683 5692 5696 5698 5699 5702 5705 5707 5709 5711 5713 5715 5716 5718 5718 5718 5721 5719 5718 5717 5717 5716 5716
5357 5376 5397 5421 5440 5462 5496 5517 5538 5555 5570 5581 5600 5610 5621 5630 5643 5651 5660 5664 5670 5682 5685 5688 5691 5693 5695 5698 5701 5702 5705 5708 5709 5710 5711 5710 5714 5712 5711 5711 5710 5709 5709 5711
5352 5365 5384 5404 5428 5455 5482 5506 5526 5545 5562 5578 5589 5599 5609 5616 5631 5637 5648 5655 5664 5669 5675 5679 5682 5686 5688 5691 5694 5697 5699 5701 5703 5703 5704 5705 5705 5704 5705 5704 5703 5703 5704 5705
5349 5359 5374 5396 5417 5447 5474 5495 5514 5537 5556 5570 5579 5590 5600 5610 5622 5629 5638 5647 5654 5660 5665 5669 5671 5677 5681 5685 5688 5690 5693 5695 5696 5696 5697 5697 5700 5697 5696 5697 5696 5698 5698 5699
5348 5356 5370 5391 5411 5440 5464 5483 5506 5527 5546 5559 5571 5581 5591 5600 5613 5623 5631 5638 5645 5651 5656 5661 5665 5670 5674 5677 5681 5686 5688 5689 5689 5689 5689 5691 5693 5691 5690 5691 5697 5694 5693 5692
5348 5356 5367 5386 5411 5430 5454 5478 5502 5522 5539 5553 5564 5574 5584 5594 5605 5616 5624 5631 5636 5644 5649 5656 5659 5663 5666 5671 5676 5679 5681 5681 5682 5682 5683 5684 5686 5685 5686 5687 5686 5686 5686 5685
5345 5355 5368 5383 5404 5425 5448 5475 5498 5520 5534 5547 5560 5571 5579 5590 5599 5611 5616 5624 5632 5639 5645 5650 5653 5656 5660 5664 5669 5672 5673 5676 5676 5677 5676 5678 5679 5680 5681 5681 5680 5679 5678 5678
5348 5363 5377 5387 5402 5422 5448 5475 5497 5516 5533 5545 5558 5567 5576 5585 5593 5599 5608 5618 5625 5632 5639 5644 5646 5646 5653 5657 5663 5666 5666 5666 5668 5668 5670 5671 5673 5675 5675 5673 5672 5671 5670 5669
5355 5368 5377 5387 5403 5427 5451 5472 5493 5512 5526 5544 5556 5564 5573 5580 5587 5595 5603 5612 5620 5627 5631 5637 5637 5641 5647 5653 5656 5657 5660 5661 5661 5662 5663 5665 5666 5666 5666 5665 5664 5663 5661 5659
5362 5373 5382 5393 5411 5433 5456 5477 5495 5510 5527 5536 5547 5558 5568 5575 5584 5591 5598 5606 5612 5617 5623 5627 5633 5636 5641 5646 5648 5650 5653 5656 5656 5657 5657 5658 5658 5658 5657 5656 5655 5653 5651 5648
5369 5377 5387 5402 5422 5443 5465 5485 5502 5516 5531 5540 5549 5559 5566 5572 5579 5585 5592 5599 5604 5609 5613 5621 5623 5630 5636 5640 5642 5645 5647 5648 5649 5649 5649 5649 5649 5648 5647 5645 5644 5642 5640 5637
5374 5384 5397 5415 5436 5457 5477 5503 5520 5530 5538 5543 5551 5557 5557 5563 5568 5577 5587 5587 5595 5602 5607 5611 5617 5622 5627 5632 5636 5638 5640 5642 5642 5642 5642 5641 5640 5639 5638 5635 5633 5631 5628 5624
5387 5403 5419 5436 5457 5477 5493 5506 5518 5527 5535 5542 5546 5547 5549 5555 5560 5572 5582 5586 5591 5597 5600 5604 5610 5615 5619 5623 5628 5630 5633 5634 5634 5633 5633 5632 5631 5630 5628 5625 5622 5619 5615 5612
5410 5428 5441 5456 5471 5488 5502 5510 5520 5524 5533 5536 5543 5546 5551 5553 5563 5570 5575 5583 5587 5592 5597 5600 5604 5608 5610 5615 5620 5622 5623 5624 5624 5624 5623 5622 5620 5618 5616 5613 5610 5607 5604 5600
5434 5446 5457 5470 5485 5496 5504 5510 5516 5524 5527 5533 5538 5546 5551 5556 5561 5568 5575 5577 5581 5583 5590 5593 5594 5600 5603 5606 5610 5612 5613 5613 5613 5612 5611 5610 5608 5606 5603 5600 5597 5594 5590 5586
5454 5462 5476 5483 5492 5501 5506 5513 5520 5527 5530 5535 5539 5543 5548 5553 5558 5564 5569 5572 5574 5578 5584 5586 5589 5592 5597 5599 5600 5602 5602 5602 5602 5601 5599 5598 5595 5592 5589 5587 5584 5580 5576 5571
5474 5483 5489 5496 5500 5504 5509 5515 5520 5523 5527 5532 5536 5541 5546 5550 5554 5557 5562 5565 5569 5571 5575 5578 5579 5586 5588 5588 5590 5591 5591 5590 5589 5588 5586 5584 5581 5580 5577 5573 5569 5565 5561 5557
5485 5491 5496 5499 5504 5508 5512 5516 5520 5523 5526 5530 5534 5537 5541 5545 5550 5554 5558 5559 5561 5563 5565 5569 5574 5577 5578 5579 5580 5580 5578 5577 5575 5573 5572 5570 5568 5566 5562 5559 5555 5551 5547 5543
5491 5495 5498 5502 5506 5510 5514 5517 5520 5523 5525 5529 5532 5535 5537 5541 5544 5548 5550 5552 5555 5556 5559 5564 5567 5568 5569 5569 5567 5565 5564 5564 5563 5562 5560 5558 5555 5552 5548 5545 5541 5537 5532 5528
5495 5498 5500 5503 5506 5510 5513 5517 5519 5521 5522 5525 5528 5532 5535 5537 5540 5542 5545 5546 5547 5549 5552 5554 5554 5555 5556 5555 5554 5554 5553 5553 5551 5549 5547 5544 5541 5537 5534 5530 5527 5523 5519 5513
5492 5495 5498 5501 5505 5508 5512 5514 5515 5517 5519 5521 5524 5528 5531 5533 5535 5538 5539 5541 5542 5544 5544 5544 5544 5545 5545 5544 5544 5543 5541 5540 5538 5535 5533 5530 5527 5524 5521 5517 5513 5509 5504 5498
5494 5495 5497 5499 5501 5504 5507 5510 5513 5515 5517 5519 5521 5523 5525 5527 5528 5531 5533 5534 5534 5534 5535 5535 5535 5535 5535 5534 5533 5530 5529 5526 5524 5521 5519 5516 5513 5510 5507 5503 5498 5494 5488 5481